User: anonymous   Login
Location: Dimsdale
(55.1333°N, 118.9833°W)
Time: 23:22:52
(UTC+00:00)
Language:

BEESAT 2 - Orbit

View from above orbital plane
View from above orbital plane
View from above satellite
View from above satellite

Ground track
Ground track

The orbit data is extracted from the following two-line orbital elements,

1 39136U 13015G   23335.72094517  .00230822  00000-0  22142-2 0  9993
2 39136  64.8566 141.2244 0018542 260.1513  99.7543 15.65450654588116
Epoch (UTC): 01 December 2023 17:18:09
Eccentricity: 0.0018542
inclination: 64.8566°
perigee height: 359 km
apogee height: 384 km
right ascension of ascending node: 141.2244°
argument of perigee: 260.1513°
revolutions per day: 15.65450654
mean anomaly at epoch: 99.7543°
orbit number at epoch: 58811

The dashed part of the orbit path shows where the satellite is in the earth's shadow,  

DLR